Location: Gwatt
(46.7204°N, 7.6223°E)
Time: 04:49:22
(UTC+00:00)

S-56A Canister/Altair - Pass Details

Date: 24 January 2021
Orbit: 632 x 2501 km, 38.9° (Epoch: 08 March)

Event Time Altitude Azimuth Distance (km) Brightness Sun altitude
Exits shadow 03:13:21 13° 113° (ESE) 1,994 10.1 -39.0°
Drops below altitude 10° 03:13:58 10° 109° (ESE) 2,217 10.4 -38.9°
Sets 03:16:53 0° 99° (E) 3,324 11.6 -38.4°
